[[{"header":{"parameterUnit":"m.s-1","parameterCategory":2,"la1":30.2992,"la2":30.254,"lo1":-89.0895,"lo2":-89.0443,"dy":0.0025,"dx":0.0025,"nx":19,"ny":19,"refTime":"2026-05-16T09:00:00:Z","depth":"0","parameterNumber":2,"parameterNumberName":"U-component_of_CURRENTS"},"data":[0,0,0,-0.1391,-0.1391,-0.1387,-0.1387,-0.1359,-0.1359,0,0,0,0,0,0,0,0,0,0,0,-0.1388,-0.1388,-0.1391,-0.1391,-0.1387,-0.1387,-0.1359,-0.1359,0,0,0,0,0,0,0,0,0,0,0,-0.1388,-0.1388,-0.1388,-0.1391,-0.1387,-0.1387,-0.1359,-0.1367,0,0,0,0,0,0,0,0,0,0,-0.1373,-0.1373,-0.1388,-0.1388,-0.1391,-0.1387,-0.1387,-0.1367,-0.1366,-0.1357,0,-0.1357,0,-0.1361,-0.1357,-0.1357,0,0,0,-0.1385,-0.1374,-0.1377,-0.1388,-0.1391,-0.1387,-0.1387,-0.1367,-0.1366,-0.1355,-0.1357,-0.1356,-0.1361,-0.1357,-0.1357,-0.1339,-0.1339,0,0,-0.1386,-0.1382,-0.1378,-0.1377,-0.1391,-0.1387,-0.1387,-0.1366,-0.1362,-0.1357,-0.1356,-0.136,-0.1357,-0.1356,-0.1339,-0.1339,0,0,0,-0.139,-0.1382,-0.1386,-0.1377,-0.1381,-0.1387,-0.1387,-0.1363,-0.1366,-0.1356,-0.136,-0.1356,-0.1356,-0.1339,-0.1339,-0.1366,0,0,0,-0.139,-0.1385,-0.1386,-0.1383,-0.1381,-0.1374,-0.1384,-0.1367,-0.1365,-0.136,-0.1356,-0.1356,-0.1339,-0.1339,-0.1365,-0.136,0,0,0,-0.1388,-0.1385,-0.1386,-0.1383,-0.1385,-0.1375,-0.1376,-0.1367,-0.1368,-0.1357,-0.1356,-0.1339,-0.1339,-0.1365,-0.1359,-0.1314,0,0,0,-0.1382,-0.1393,-0.1386,-0.1401,-0.1385,-0.1402,-0.1376,-0.1382,-0.1377,-0.1356,-0.1339,-0.1339,-0.1364,-0.1358,-0.1314,-0.1141,-0.1126,0,0,-0.1397,-0.1394,-0.1406,-0.14,-0.1424,-0.1402,-0.1413,-0.1393,-0.137,-0.1343,-0.1343,-0.1366,-0.1359,-0.1314,-0.1143,-0.1127,0,0,0,-0.1412,-0.1418,-0.1425,-0.1434,-0.1442,-0.1432,-0.142,-0.1402,-0.1375,-0.1368,-0.1358,-0.1353,-0.1323,-0.122,-0.1208,-0.1067,-0.1339,-0.1339,-0.1339,-0.1413,-0.1428,-0.1442,-0.1456,-0.1463,-0.1453,-0.1434,-0.1402,-0.1396,-0.1383,-0.137,-0.1347,-0.1239,-0.1227,-0.1086,-0.1374,-0.1374,-0.1374,-0.1374,-0.1422,-0.142,-0.1442,-0.1459,-0.1458,-0.1461,-0.1436,-0.1422,-0.1372,-0.1381,-0.1351,-0.1249,-0.1214,-0.1069,-0.1376,-0.1376,-0.1375,-0.1375,-0.1375,-0.1399,-0.1398,-0.1416,-0.1435,-0.1448,-0.1454,-0.1422,-0.1416,-0.1376,-0.1359,-0.1208,-0.1205,-0.1076,-0.1339,-0.1339,-0.1339,-0.1339,-0.1338,-0.1338,-0.135,-0.1373,-0.138,-0.1409,-0.143,-0.1437,-0.1411,-0.1355,-0.1244,-0.1199,-0.1197,-0.1031,-0.1335,-0.1335,-0.1335,-0.1336,-0.1336,-0.1336,-0.1337,-0.1287,-0.1305,-0.1328,-0.1351,-0.1395,-0.1305,-0.1341,-0.1141,-0.1091,-0.0986,-0.0808,-0.1093,-0.1053,-0.106,-0.1053,-0.098,-0.098,-0.0979,-0.0979,-0.1226,-0.1243,-0.1265,-0.1306,-0.1322,-0.1252,-0.0992,-0.0836,-0.0656,-0.0544,-0.0586,-0.0551,-0.0572,-0.0504,-0.0524,-0.0506,-0.0296,-0.0295,-0.0294,-0.116,-0.1199,-0.1186,-0.1253,-0.1285,-0.1108,-0.0732,-0.0396,-0.023,-0.0261,-0.0426,-0.0455,-0.0406,-0.045,-0.035,-0.0389,-0.0363,0,0]},{"header":{"parameterUnit":"m.s-1","parameterCategory":2,"la1":30.2992,"la2":30.254,"lo1":-89.0895,"lo2":-89.0443,"dy":0.0025,"dx":0.0025,"nx":19,"ny":19,"refTime":"2026-05-16T09:00:00:Z","depth":"0","parameterNumber":3,"parameterNumberName":"V-component_of_CURRENTS"},"data":[0,0,0,-0.0336,-0.0336,-0.0308,-0.0307,-0.0227,-0.0226,0,0,0,0,0,0,0,0,0,0,0,-0.0345,-0.0345,-0.0336,-0.0336,-0.0308,-0.0307,-0.0227,-0.0226,0,0,0,0,0,0,0,0,0,0,0,-0.0345,-0.0345,-0.0345,-0.0336,-0.0308,-0.0307,-0.0227,-0.0258,0,0,0,0,0,0,0,0,0,0,-0.029,-0.031,-0.0345,-0.0345,-0.0336,-0.0308,-0.0307,-0.0259,-0.0256,-0.023,0,-0.0231,0,-0.0229,-0.022,-0.022,0,0,0,-0.0328,-0.0313,-0.0304,-0.0345,-0.0335,-0.0308,-0.0318,-0.0258,-0.0253,-0.0224,-0.023,-0.0227,-0.0228,-0.022,-0.022,-0.0151,-0.0151,0,0,-0.0329,-0.0337,-0.0307,-0.0302,-0.0334,-0.0319,-0.0317,-0.0255,-0.0253,-0.0229,-0.0225,-0.0227,-0.0219,-0.0219,-0.0151,-0.0151,0,0,0,-0.0339,-0.0339,-0.0332,-0.0305,-0.0305,-0.0318,-0.0316,-0.0256,-0.0253,-0.0224,-0.0226,-0.0219,-0.0218,-0.0151,-0.0151,-0.0179,0,0,0,-0.034,-0.0345,-0.0333,-0.0337,-0.0306,-0.0287,-0.0318,-0.0258,-0.0251,-0.0226,-0.0219,-0.0217,-0.0151,-0.0151,-0.0179,-0.0179,0,0,0,-0.0345,-0.0345,-0.0344,-0.0338,-0.0329,-0.0288,-0.0282,-0.0256,-0.0252,-0.022,-0.0217,-0.0151,-0.0151,-0.0178,-0.0179,-0.0105,0,0,0,-0.0351,-0.0369,-0.0344,-0.0361,-0.033,-0.0322,-0.0283,-0.0269,-0.0247,-0.0218,-0.0151,-0.0151,-0.0178,-0.0179,-0.0106,0.0061,0.0079,0,0,-0.0381,-0.0373,-0.0383,-0.036,-0.0366,-0.0324,-0.031,-0.0264,-0.023,-0.0167,-0.0166,-0.0179,-0.0179,-0.0106,0.0077,0.0095,0,0,0,-0.0397,-0.0405,-0.0402,-0.0397,-0.0376,-0.0338,-0.0299,-0.0265,-0.0209,-0.0216,-0.0165,-0.0164,-0.0116,-0.0017,-0.0003,0.012,-0.015,-0.015,-0.015,-0.0446,-0.0433,-0.0444,-0.0423,-0.0405,-0.0345,-0.0304,-0.0244,-0.0222,-0.0198,-0.0177,-0.0128,-0.0025,-0.0012,0.0111,-0.0172,-0.0172,-0.0172,-0.0172,-0.0495,-0.0502,-0.0469,-0.0478,-0.0422,-0.0396,-0.0299,-0.0264,-0.0168,-0.018,-0.0132,-0.0041,0.0002,0.0128,-0.0173,-0.0173,-0.0173,-0.0173,-0.0173,-0.0532,-0.0532,-0.0531,-0.0523,-0.0481,-0.0417,-0.0301,-0.0257,-0.0184,-0.0145,0.0026,0.0029,0.0138,-0.0104,-0.0104,-0.0103,-0.0103,-0.0103,-0.0103,-0.0571,-0.0566,-0.0577,-0.0562,-0.053,-0.0441,-0.0303,-0.0196,-0.004,0.0032,0.0035,0.0188,-0.0106,-0.0111,-0.0098,-0.0099,-0.0099,-0.01,-0.01,-0.0615,-0.0615,-0.0624,-0.0604,-0.0472,-0.0207,-0.0153,0.0151,0.0198,0.0322,0.0425,0.0156,0.02,0.0191,0.0195,0.0286,0.0286,0.0286,0.0286,-0.0643,-0.0646,-0.0604,-0.0513,-0.0335,-0.0075,0.0401,0.0617,0.0712,0.0757,0.0649,0.0665,0.0644,0.0713,0.0692,0.0705,0.0924,0.0925,0.0925,-0.0663,-0.0654,-0.058,-0.0459,-0.0222,0.0207,0.0788,0.1146,0.1098,0.0955,0.0786,0.0759,0.0779,0.0736,0.0834,0.0796,0.0813,0,0]}],[{"header":{"parameterUnit":"m.s-1","parameterCategory":2,"la1":30.2992,"la2":30.254,"lo1":-89.0895,"lo2":-89.0443,"dy":0.0025,"dx":0.0025,"nx":19,"ny":19,"refTime":"2026-05-16T09:00:00:Z","depth":"2","parameterNumber":2,"parameterNumberName":"U-component_of_CURRENTS"},"data":[0,0,0,-0.1321,-0.1321,-0.1317,-0.1317,-0.1286,-0.1286,0,0,0,0,0,0,0,0,0,0,0,-0.1319,-0.1319,-0.1321,-0.1321,-0.1317,-0.1317,-0.1286,-0.1286,0,0,0,0,0,0,0,0,0,0,0,-0.1319,-0.1319,-0.1319,-0.1321,-0.1317,-0.1317,-0.1286,-0.1294,0,0,0,0,0,0,0,0,0,0,-0.1301,-0.1302,-0.1319,-0.1319,-0.1321,-0.1317,-0.1317,-0.1295,-0.1294,-0.1283,0,-0.1284,0,-0.1288,-0.1284,-0.1284,0,0,0,-0.1315,-0.1303,-0.1306,-0.1319,-0.1321,-0.1317,-0.1317,-0.1295,-0.1293,-0.1281,-0.1284,-0.1283,-0.1287,-0.1284,-0.1284,-0.1263,-0.1263,0,0,-0.1316,-0.1312,-0.1307,-0.1305,-0.1322,-0.1317,-0.1317,-0.1294,-0.129,-0.1284,-0.1282,-0.1287,-0.1284,-0.1283,-0.1263,-0.1263,0,0,0,-0.132,-0.1313,-0.1316,-0.1306,-0.131,-0.1317,-0.1317,-0.1291,-0.1294,-0.1282,-0.1287,-0.1283,-0.1283,-0.1263,-0.1263,-0.129,0,0,0,-0.132,-0.1316,-0.1317,-0.1314,-0.131,-0.1303,-0.1315,-0.1295,-0.1293,-0.1287,-0.1283,-0.1283,-0.1262,-0.1263,-0.1289,-0.1284,0,0,0,-0.1319,-0.1316,-0.1317,-0.1314,-0.1316,-0.1304,-0.1305,-0.1295,-0.1296,-0.1284,-0.1283,-0.1262,-0.1263,-0.1289,-0.1283,-0.1239,0,0,0,-0.1313,-0.1324,-0.1317,-0.1331,-0.1316,-0.133,-0.1305,-0.131,-0.1304,-0.1283,-0.1262,-0.1263,-0.1288,-0.1283,-0.124,-0.1072,-0.1056,0,0,-0.1327,-0.1325,-0.1336,-0.133,-0.1351,-0.133,-0.1339,-0.132,-0.1297,-0.1267,-0.1267,-0.129,-0.1283,-0.1239,-0.1072,-0.1056,0,0,0,-0.1342,-0.1347,-0.1353,-0.1361,-0.1367,-0.1357,-0.1345,-0.1327,-0.13,-0.1294,-0.1282,-0.1276,-0.1248,-0.1147,-0.1135,-0.1263,-0.1263,-0.1263,-0.1263,-0.1344,-0.1357,-0.1369,-0.1381,-0.1387,-0.1376,-0.1357,-0.1325,-0.1319,-0.1307,-0.1294,-0.1272,-0.1166,-0.1155,-0.1297,-0.1297,-0.1297,-0.1297,-0.1297,-0.1351,-0.1348,-0.1369,-0.1383,-0.1381,-0.1383,-0.1357,-0.1344,-0.1296,-0.1304,-0.1275,-0.1176,-0.1143,-0.13,-0.1299,-0.1299,-0.1299,-0.1298,-0.1298,-0.133,-0.1327,-0.1345,-0.1361,-0.1372,-0.1376,-0.1346,-0.1339,-0.13,-0.1283,-0.1137,-0.1134,-0.1265,-0.1266,-0.1265,-0.1265,-0.1265,-0.1265,-0.1265,-0.1283,-0.1304,-0.1309,-0.1335,-0.1353,-0.136,-0.1337,-0.1283,-0.1174,-0.113,-0.1128,-0.1259,-0.126,-0.1261,-0.1262,-0.1262,-0.1263,-0.1263,-0.1263,-0.122,-0.1238,-0.1256,-0.1276,-0.1313,-0.1216,-0.1259,-0.1069,-0.1026,-0.0921,-0.1019,-0.1026,-0.0987,-0.0994,-0.0987,-0.0916,-0.0916,-0.0916,-0.0916,-0.1161,-0.1177,-0.119,-0.1222,-0.1225,-0.1155,-0.091,-0.0787,-0.0744,-0.0738,-0.0746,-0.0735,-0.0751,-0.0699,-0.0714,-0.0702,-0.0557,-0.0557,-0.0557,-0.1094,-0.1128,-0.1108,-0.1165,-0.1176,-0.1002,-0.0646,-0.0377,-0.0361,-0.0551,-0.0772,-0.0875,-0.0881,-0.0898,-0.0837,-0.0853,-0.0841,0,0]},{"header":{"parameterUnit":"m.s-1","parameterCategory":2,"la1":30.2992,"la2":30.254,"lo1":-89.0895,"lo2":-89.0443,"dy":0.0025,"dx":0.0025,"nx":19,"ny":19,"refTime":"2026-05-16T09:00:00:Z","depth":"2","parameterNumber":3,"parameterNumberName":"V-component_of_CURRENTS"},"data":[0,0,0,-0.0381,-0.038,-0.0354,-0.0354,-0.0279,-0.0279,0,0,0,0,0,0,0,0,0,0,0,-0.0388,-0.0388,-0.0381,-0.038,-0.0354,-0.0354,-0.0279,-0.0279,0,0,0,0,0,0,0,0,0,0,0,-0.0388,-0.0388,-0.0388,-0.038,-0.0354,-0.0354,-0.028,-0.0308,0,0,0,0,0,0,0,0,0,0,-0.0337,-0.0356,-0.0388,-0.0388,-0.038,-0.0354,-0.0354,-0.0309,-0.0306,-0.0282,0,-0.0283,0,-0.0282,-0.0273,-0.0273,0,0,0,-0.0373,-0.0359,-0.0351,-0.0388,-0.038,-0.0354,-0.0364,-0.0308,-0.0304,-0.0277,-0.0282,-0.0279,-0.028,-0.0273,-0.0272,-0.0206,-0.0206,0,0,-0.0374,-0.0382,-0.0354,-0.0349,-0.0379,-0.0365,-0.0363,-0.0306,-0.0303,-0.0282,-0.0278,-0.0279,-0.0272,-0.0272,-0.0206,-0.0206,0,0,0,-0.0383,-0.0383,-0.0377,-0.0351,-0.0351,-0.0364,-0.0362,-0.0306,-0.0304,-0.0277,-0.0278,-0.0272,-0.0271,-0.0206,-0.0206,-0.0234,0,0,0,-0.0384,-0.0389,-0.0377,-0.0381,-0.0353,-0.0335,-0.0364,-0.0308,-0.0302,-0.0279,-0.0272,-0.027,-0.0207,-0.0206,-0.0233,-0.0236,0,0,0,-0.0389,-0.0389,-0.0388,-0.0382,-0.0374,-0.0336,-0.0331,-0.0307,-0.0302,-0.0273,-0.027,-0.0207,-0.0206,-0.0233,-0.0235,-0.0168,0,0,0,-0.0394,-0.0411,-0.0388,-0.0404,-0.0375,-0.0367,-0.0331,-0.0318,-0.0298,-0.0271,-0.0207,-0.0206,-0.0233,-0.0235,-0.0169,-0.0043,-0.0029,0,0,-0.0423,-0.0415,-0.0424,-0.0403,-0.0409,-0.037,-0.0356,-0.0314,-0.028,-0.0221,-0.022,-0.0233,-0.0235,-0.0168,-0.0025,-0.0011,0,0,0,-0.0438,-0.0445,-0.0443,-0.0438,-0.0418,-0.0383,-0.0346,-0.0314,-0.0261,-0.0267,-0.0219,-0.0218,-0.0175,-0.0101,-0.0091,-0.0205,-0.0205,-0.0205,-0.0205,-0.0484,-0.0472,-0.0484,-0.0464,-0.0447,-0.039,-0.0352,-0.0294,-0.0272,-0.0248,-0.0231,-0.0185,-0.0108,-0.0098,-0.0223,-0.0223,-0.0223,-0.0223,-0.0223,-0.0532,-0.0541,-0.051,-0.0519,-0.0466,-0.0442,-0.0349,-0.0315,-0.0224,-0.0232,-0.0188,-0.0122,-0.0088,-0.0225,-0.0225,-0.0225,-0.0224,-0.0224,-0.0224,-0.057,-0.0571,-0.0571,-0.0565,-0.0527,-0.0466,-0.0361,-0.0314,-0.024,-0.0204,-0.0064,-0.0062,-0.0177,-0.0165,-0.0164,-0.0164,-0.0164,-0.0164,-0.0164,-0.0609,-0.0606,-0.0621,-0.0607,-0.0582,-0.0501,-0.0368,-0.0266,-0.0125,-0.0063,-0.0061,-0.0163,-0.0165,-0.0171,-0.0159,-0.016,-0.0161,-0.0161,-0.0161,-0.0656,-0.0656,-0.0677,-0.0663,-0.0553,-0.049,-0.0353,-0.0097,0.004,0.0137,0.0044,0.0038,0.0076,0.0068,0.007,0.0144,0.0144,0.0144,0.0144,-0.0687,-0.0689,-0.0676,-0.0611,-0.0483,-0.0442,-0.0327,-0.023,-0.0026,0.0004,0.0008,-0.0025,-0.003,-0.0003,-0.0008,-0.0011,0.0042,0.0041,0.004,-0.0711,-0.0712,-0.0667,-0.0578,-0.0419,-0.0381,-0.0478,-0.048,-0.0158,0.0016,-0.0207,0.0175,0.0142,0.0127,0.0181,0.0167,0.0168,0,0]}],[{"header":{"parameterUnit":"m.s-1","parameterCategory":2,"la1":30.2992,"la2":30.254,"lo1":-89.0895,"lo2":-89.0443,"dy":0.0025,"dx":0.0025,"nx":19,"ny":19,"refTime":"2026-05-16T09:00:00:Z","depth":"4","parameterNumber":2,"parameterNumberName":"U-component_of_CURRENTS"},"data":[0,0,0,-0.0917,-0.0918,-0.0958,-0.0958,-0.0952,-0.0952,0,0,0,0,0,0,0,0,0,0,0,-0.0906,-0.0907,-0.0917,-0.0918,-0.0958,-0.0958,-0.0952,-0.0952,0,0,0,0,0,0,0,0,0,0,0,-0.0906,-0.0907,-0.0907,-0.0919,-0.0958,-0.0958,-0.0952,-0.0936,0,0,0,0,0,0,0,0,0,0,-0.0904,-0.0905,-0.0906,-0.0907,-0.0919,-0.0958,-0.0958,-0.0936,-0.0937,-0.0919,0,-0.0932,0,-0.094,-0.0951,-0.0951,0,0,0,-0.0916,-0.0904,-0.0913,-0.0907,-0.0919,-0.0958,-0.0939,-0.0937,-0.0938,-0.092,-0.0932,-0.0932,-0.094,-0.0951,-0.095,-0.0939,-0.0939,0,0,-0.0914,-0.0912,-0.0912,-0.0914,-0.0937,-0.0938,-0.0941,-0.0938,-0.0942,-0.0932,-0.0932,-0.094,-0.095,-0.095,-0.0939,-0.0939,0,0,0,-0.0909,-0.0911,-0.0921,-0.0914,-0.0925,-0.0939,-0.0942,-0.0942,-0.0946,-0.0932,-0.094,-0.095,-0.095,-0.0939,-0.0939,-0.0964,0,0,0,-0.0908,-0.0908,-0.092,-0.0919,-0.0925,-0.0942,-0.0946,-0.0946,-0.0946,-0.094,-0.095,-0.095,-0.0939,-0.0939,-0.0963,-0.0958,0,0,0,-0.0903,-0.0907,-0.0914,-0.0919,-0.0937,-0.0943,-0.0946,-0.0947,-0.0951,-0.0951,-0.095,-0.0939,-0.0939,-0.0963,-0.0958,-0.091,0,0,0,-0.0896,-0.0909,-0.0914,-0.0932,-0.0937,-0.0959,-0.0947,-0.0965,-0.097,-0.095,-0.0939,-0.0939,-0.0962,-0.0957,-0.0911,-0.0769,0,0,0,-0.0906,-0.091,-0.092,-0.0925,-0.0948,-0.0953,-0.0971,-0.0974,-0.096,-0.0935,-0.0935,-0.0964,-0.0958,-0.091,-0.0776,0,0,0,0,-0.0918,-0.0925,-0.0933,-0.0949,-0.0965,-0.0975,-0.0985,-0.098,-0.0972,-0.0963,-0.0958,-0.0953,-0.0922,-0.0841,-0.0939,-0.0939,-0.0939,-0.0939,-0.0939,-0.0917,-0.0929,-0.0944,-0.0961,-0.0978,-0.0993,-0.0993,-0.0984,-0.0983,-0.0983,-0.0971,-0.0947,-0.0864,-0.0975,-0.0975,-0.0975,-0.0975,-0.0975,-0.0975,-0.0916,-0.0913,-0.0945,-0.0966,-0.0983,-0.1002,-0.0998,-0.0999,-0.0969,-0.0983,-0.0952,-0.0871,-0.0977,-0.0977,-0.0977,-0.0976,-0.0976,-0.0976,-0.0976,-0.0891,-0.0889,-0.092,-0.095,-0.0978,-0.1002,-0.0966,-0.0987,-0.0973,-0.0959,-0.0832,-0.0939,-0.0937,-0.0937,-0.0936,-0.0936,-0.0936,-0.0936,-0.0936,-0.0838,-0.0867,-0.0873,-0.0925,-0.0931,-0.094,-0.0947,-0.0901,-0.0906,-0.0823,-0.0951,-0.0932,-0.0933,-0.0933,-0.0932,-0.0933,-0.0933,-0.0934,-0.0934,-0.0771,-0.0798,-0.0783,-0.0791,-0.078,-0.078,-0.0837,-0.0752,-0.0685,-0.0621,-0.0731,-0.0742,-0.0704,-0.071,-0.0701,-0.0632,-0.063,-0.0628,0,-0.0714,-0.0732,-0.0644,-0.0584,-0.0537,-0.0625,-0.0525,-0.0514,-0.053,-0.0513,-0.0645,-0.0769,-0.0777,-0.0736,-0.0739,-0.0727,0,0,0,-0.0655,-0.0633,-0.0508,-0.0443,-0.0377,-0.0388,-0.0473,-0.0425,-0.0578,-0.0481,-0.0581,-0.0593,-0.0783,-0.0923,-0.089,-0.0891,-0.0887,0,0]},{"header":{"parameterUnit":"m.s-1","parameterCategory":2,"la1":30.2992,"la2":30.254,"lo1":-89.0895,"lo2":-89.0443,"dy":0.0025,"dx":0.0025,"nx":19,"ny":19,"refTime":"2026-05-16T09:00:00:Z","depth":"4","parameterNumber":3,"parameterNumberName":"V-component_of_CURRENTS"},"data":[0,0,0,-0.033,-0.033,-0.0334,-0.0334,-0.0302,-0.0301,0,0,0,0,0,0,0,0,0,0,0,-0.0328,-0.0328,-0.033,-0.033,-0.0334,-0.0334,-0.0302,-0.0301,0,0,0,0,0,0,0,0,0,0,0,-0.0328,-0.0328,-0.0328,-0.033,-0.0334,-0.0334,-0.0302,-0.0307,0,0,0,0,0,0,0,0,0,0,-0.0307,-0.0316,-0.0328,-0.0328,-0.033,-0.0334,-0.0334,-0.0307,-0.0306,-0.029,0,-0.0296,0,-0.0299,-0.0299,-0.0299,0,0,0,-0.0325,-0.0317,-0.0316,-0.0328,-0.033,-0.0334,-0.0331,-0.0307,-0.0306,-0.0289,-0.0296,-0.0295,-0.0299,-0.0298,-0.0298,-0.0246,-0.0246,0,0,-0.0325,-0.0329,-0.0317,-0.0315,-0.0337,-0.0331,-0.0331,-0.0307,-0.0309,-0.0296,-0.0294,-0.0298,-0.0298,-0.0298,-0.0246,-0.0246,0,0,0,-0.0327,-0.0329,-0.0329,-0.0316,-0.0321,-0.0331,-0.0331,-0.031,-0.0309,-0.0294,-0.0298,-0.0298,-0.0298,-0.0246,-0.0246,-0.0272,0,0,0,-0.0327,-0.0331,-0.0329,-0.0331,-0.0322,-0.0322,-0.0335,-0.0311,-0.0308,-0.0298,-0.0298,-0.0297,-0.0247,-0.0246,-0.0272,-0.0285,0,0,0,-0.0327,-0.0331,-0.0333,-0.0331,-0.0335,-0.0322,-0.032,-0.0311,-0.0311,-0.0299,-0.0297,-0.0247,-0.0246,-0.0272,-0.0285,-0.0268,0,0,0,-0.0329,-0.0337,-0.0333,-0.0341,-0.0336,-0.0332,-0.0321,-0.0318,-0.0309,-0.0298,-0.0247,-0.0246,-0.0272,-0.0285,-0.0269,-0.0365,0,0,0,-0.0338,-0.0338,-0.0342,-0.0339,-0.0345,-0.0331,-0.0326,-0.0313,-0.029,-0.0252,-0.0251,-0.0272,-0.0285,-0.0269,-0.0323,0,0,0,0,-0.0344,-0.0353,-0.0352,-0.0357,-0.0347,-0.034,-0.0325,-0.0305,-0.0275,-0.0282,-0.0251,-0.0258,-0.0247,-0.0302,-0.0243,-0.0243,-0.0243,-0.0243,-0.0243,-0.0371,-0.0366,-0.0378,-0.0374,-0.0367,-0.0344,-0.0328,-0.0295,-0.0277,-0.0259,-0.0263,-0.0248,-0.0306,-0.0243,-0.0243,-0.0244,-0.0244,-0.0244,-0.0244,-0.0405,-0.0418,-0.0407,-0.0422,-0.04,-0.0393,-0.0337,-0.0316,-0.0268,-0.0257,-0.0245,-0.0306,-0.0246,-0.0245,-0.0245,-0.0245,-0.0245,-0.0245,-0.0244,-0.0437,-0.0442,-0.0452,-0.0472,-0.0466,-0.0435,-0.0422,-0.0357,-0.0294,-0.028,-0.0316,-0.0253,-0.0268,-0.0267,-0.0267,-0.0267,-0.0267,-0.0267,-0.0267,-0.047,-0.0476,-0.0521,-0.0526,-0.055,-0.0543,-0.0468,-0.0432,-0.0346,-0.0349,-0.0281,-0.0255,-0.0254,-0.0268,-0.0267,-0.0267,-0.0267,-0.0267,-0.0267,-0.0514,-0.0526,-0.0601,-0.0639,-0.0697,-0.0683,-0.0593,-0.05,-0.0461,-0.0418,-0.0377,-0.0371,-0.0367,-0.0363,-0.0381,-0.0413,-0.0414,-0.0415,0,-0.0552,-0.0559,-0.0697,-0.0795,-0.0856,-0.0792,-0.0758,-0.0671,-0.0543,-0.0568,-0.0474,-0.0434,-0.0428,-0.0429,-0.0427,-0.0453,0,0,0,-0.0591,-0.0634,-0.0757,-0.0871,-0.0954,-0.0869,-0.076,-0.0736,-0.0559,-0.051,-0.0446,-0.0438,-0.0354,-0.0266,-0.0246,-0.0245,-0.0265,0,0]}]]